Weather Service Report


392 
ASUS41 KGYX 270410
RWRGYX
WEATHER ROUNDUP FOR MAINE AND NEW HAMPSHIRE
NATIONAL WEATHER SERVICE GRAY ME
1200 AM EDT TUE SEP 27 2016

MEZ002-005-006-010-012-015-018-020-021-024-026-027-029-270500-
MAINE
  
CITY           SKY/WX    TMP DP  RH WIND       PRES   REMARKS
PORTLAND       CLOUDY    58  49  72 SW6       30.02S                  
SANFORD        PTCLDY    48  46  93 CALM      30.02F                  
BAR HARBOR     PTCLDY   N/A N/A N/A SW9       30.02F                  
WISCASSET      CLOUDY    50  45  83 CALM      30.02F                  
ROCKLAND       PTCLDY    55  49  80 SW5       30.02F                  
FRYEBURG       CLOUDY    50  43  77 CALM      29.99F                  
LEWISTONAUBURN CLOUDY    51  46  83 S6        30.00F                  
AUGUSTA        CLOUDY    50  45  83 SW3       30.00F                  
WATERVILLE     CLOUDY    48  44  86 CALM      29.97F                  
BANGOR         MOCLDY    48  41  76 S5        30.00F                  
GREENVILLE       N/A     46  39  76 VRB3      29.94F                  
MILLINOCKET    CLOUDY    44  40  85 CALM      29.98F                  
HOULTON        CLOUDY    43  39  86 SW6       29.95S                  
PRESQUE ISLE   CLOUDY    36  35  96 CALM      29.94F                  
FRENCHVILLE    CLOUDY    45  39  79 W3        29.91F                  
CARIBOU        CLOUDY    42  38  85 SW6       29.92F                  
$$

NHZ002-005-008-009-011-012-014-270500-
NEW HAMPSHIRE
  
CITY           SKY/WX    TMP DP  RH WIND       PRES   REMARKS
PORTSMOUTH     CLOUDY    55  46  72 S2        30.00F                  
ROCHESTER      CLOUDY    52  45  77 CALM      30.01F                  
NASHUA         CLOUDY    59  49  69 SE3       30.01F                  
MANCHESTER     CLOUDY    58  47  66 S7        29.99F                  
CONCORD        CLOUDY    55  45  68 S8        30.00F                  
LACONIA        CLOUDY    56  46  69 SW10      29.99F                  
PLYMOUTH       CLOUDY    48  46  93 CALM      29.99F                  
BERLIN         PTCLDY    48  44  86 CALM      29.96F                  
WHITEFIELD     CLOUDY    47  43  86 CALM      29.96F                  
JAFFREY        CLOUDY    58  48  69 S6        30.00F                  
KEENE          CLOUDY    53  50  89 CALM      29.97                   
LEBANON        CLOUDY    52  48  86 CALM      29.95F                  
MT WASHINGTON  DRZL/FOG  39  39 100 W37         N/A  VSB 0            
$$

VTZ005-007-008-270500-
VERMONT
  
CITY           SKY/WX    TMP DP  RH WIND       PRES   REMARKS
ST JOHNSBURY     N/A     50  47  89 MISG      29.94F                  
MONTPELIER     CLOUDY    54  44  69 S7        29.96F                  
BURLINGTON     CLOUDY    64  46  52 S17G23    29.87F                  
$$

MAZ007-012-024-CTZ003-RIZ002-NYZ038-NYZ072-270500-
SOUTHERN NEW ENGLAND AND NY
  
CITY           SKY/WX    TMP DP  RH WIND       PRES   REMARKS
BOSTON         CLOUDY    59  50  72 S10       30.03F                  
WORCESTER      CLOUDY    57  48  72 S13       30.01F                  
NANTUCKET      CLEAR     63  48  58 S14       30.08F                  
PROVIDENCE     MOCLDY    60  50  69 S8        30.03F                  
HARTFORD       CLOUDY    62  51  67 S7        29.99F                  
ALBANY         LGT RAIN  64  50  60 S12       29.93F                  
NEW YORK CITY  CLOUDY    70  60  70 S12       29.98F                  
$$

ANZ081-ANZ082-ANZ150-NHZ014-MEZ023>029-270500-
COASTAL MARINE OBSERVATIONS
  
STATION/POSITION TIME  TEMP    WIND        PRES    WAVE
                       AIR SEA DIR/SP/G            HT/PER
                 (UTC) (F)     (DEG/KT/KT) (MB)    (FT/S)
MOUNT DESERT ROC 0400   56     200/ 10/ 12 1017.0F
MATINICUS ROCK   0400   57     210/ 17/ 19 1016.3F
ISLE OF SHOALS   0400   61     200/ 20/ 22 1016.0F
JEFFREYS LEDGE   0338      61                N/A     4/ 4
CASHES LEDGE BUO 0350   60 60  210/ 14/ 17 1017.2F   3/ 4
GEORGES BANK BUO 0250   60 64              1020.3    3/ 6
$$

.............KEY..............
   WCI - WIND CHILL
   TC  - TEMPERATURE IN CELSIUS
   VSB - VISIBILITY IN MILES
   HX  - HEAT INDEX
   FAIR- INDICATES FEW OR NO CLOUDS BELOW 12,000 FT, WITH NO 
         SIGNIFICANT WEATHER AND/OR OBSTRUCTIONS TO VISIBILITY.


  

Return to Home page


Western Regional Climate Center, wrcc@dri.edu